Other Public Products
Issued by NWS Grand Forks, ND

Home | Current Version | Previous Version | Text Only | Print | Product List | Glossary On
Versions: 1 2 3 4 5 6 7 8 9 10 11 12 13 14 15 16 17 18 19 20 21 22 23 24 25 26 27 28 29 30 31 32 33 34 35 36 37 38 39 40 41 42 43 44 45 46 47 48 49 50
000
FPUS83 KFGF 200510
OPUFGF
PRAIRIE TO PINES WEATHER ROUNDUP
NATIONAL WEATHER SERVICE EASTERN NORTH DAKOTA/GRAND FORKS ND
1200 AM CDT FRI JUL 20 2018

 **SATELLITE DATA USED TO AUGMENT SKY COVER AT AUTOMATED STATIONS**
 *****  WEATHER ACROSS EASTERN NORTH DAKOTA  *****

CITY           SKY/WX    TMP DP  RH WIND       PRES   REMARKS
GRAND FORKS    CLOUDY    64  63  96 W6        29.83R
GRND FORKS AFB MOCLDY    62  62 100 W6        29.85S
GRND FORKS NWS   N/A     66  62  87 NW6       29.80S
BUXTON           N/A     66  65  97 W2          N/A
DEVILS LAKE    CLOUDY    64  62  93 N3        29.89S
FARGO          MOCLDY    65  65 100 CALM      29.82F
WAHPETON ARPT  FAIR      63  61  94 NE3       29.82S
$$

 *****  WEATHER ACROSS CENTRAL AND WESTERN NORTH DAKOTA  *****

CITY           SKY/WX    TMP DP  RH WIND       PRES   REMARKS
JAMESTOWN      FAIR      63  62  97 S8        29.86F
BISMARCK       FAIR      69  58  67 N8        29.90R
MINOT          FAIR      65  62  90 N9        29.94R
MINOT AFB      FAIR      66  62  87 N8        29.93S
GARRISON         N/A     61  60  97 N5        29.93R
WILLISTON      FAIR      67  60  78 N7        29.98R
DICKINSON      FAIR      67  58  72 N8        29.97R
HETTINGER      FAIR      65  59  81 N8        29.98R
$$

 *****  OTHER OBSERVATIONS NORTHEAST NORTH DAKOTA  *****

CITY           SKY/WX    TMP DP  RH WIND       PRES   REMARKS
WALHALLA       RAIN      66  66 100 NW8       29.85R
LANGDON        MOCLDY    63  63 100 NW7       29.89S
CAVALIER       DRIZZLE   64  64 100 NW5       29.85R
GRAFTON        FAIR      64  64 100 NW8       29.85S
CANDO          CLOUDY    66  66 100 N3        29.92S
FORT TOTTEN      N/A     61  60  98 CALM      29.95S
ROLLA          FAIR      63  63 100 N8        29.92F
RUGBY          MOCLDY    64  64 100 NE5       29.91S
 ***** THE ABOVE OBSERVATIONS ARE NON NWS ARE NOT QUALITY
        CONTROLLED AND MAY MIS-REPORT RAIN FOR SNOW...
$$

 *****  OTHER OBSERVATIONS SOUTHEAST NORTH DAKOTA *****

CITY           SKY/WX    TMP DP  RH WIND       PRES   REMARKS
COOPERSTOWN    FAIR      63  61  94 NW8       29.87R
VALLEY CITY    LGT RAIN  63  64 100 S6        29.85F
OAKES          MOCLDY    63  63 100 N8        29.89R
GWINNER        MOCLDY    63  61  94 CALM      29.87R
SHEYENNE NWR     N/A     63  63 100 NW3       29.95S
BUFFALO          N/A     64  60  86 W5          N/A
WYNDMERE       NOT AVBL
 ***** THE ABOVE OBSERVATIONS ARE NON NWS ARE NOT QUALITY
       CONTROLLED AND MAY MIS-REPORT RAIN FOR SNOW...
$$

  *****  WEATHER ACROSS NORTHERN MINNESOTA  *****

CITY           SKY/WX    TMP DP  RH WIND       PRES   REMARKS
FLAG ISLAND    LGT RAIN  66  64  94 NW14      29.79S
WARROAD        CLOUDY    66  63  88 N6        29.80F
ROSEAU         FAIR      64  59  82 CALM      29.81F
HALLOCK        CLOUDY    64  63  94 NW3       29.83R
THF RVR FALLS  MOCLDY    63  61  93 W5        29.83S
HALSTAD          N/A     65  64  97 E3          N/A
FOSSTON        LGT RAIN  63  61  94 SE5       29.84S
BAUDETTE       FAIR      67  63  87 NW5       29.80S
WASKISH        MOCLDY    70  66  88 W7        29.80F
CROOKSTON      MOCLDY    64  63  94 NW5       29.83S
$$
  *****  WEATHER ACROSS CENTRAL AND WEST MINNESOTA  *****

CITY           SKY/WX    TMP DP  RH WIND       PRES   REMARKS
BEMIDJI        MOCLDY    65  64  94 CALM      29.83F
PARK RAPIDS    CLOUDY    63  61  93 CALM      29.84F
WADENA         NOT AVBL
DETROIT LAKES  DRIZZLE   64  63  94 CALM      29.85S
MOORHEAD       FAIR      64  63  94 CALM      29.84R
FERGUS FALLS   LGT RAIN  64  64 100 N8        29.84R
ELBOW LAKE     DRIZZLE   64  64 100 NW5       29.82S
MORRIS MN      DRIZZLE   64  64 100 N7        29.80R
STAPLES        LGT RAIN  63  61  94 N7        29.82S
WHEATON        FAIR      63  61  94 NW6       29.85R
$$
  *****  WEATHER ELSEWHERE ACROSS MINNESOTA  *****

CITY           SKY/WX    TMP DP  RH WIND       PRES   REMARKS
DULUTH         MOCLDY    66  62  87 E3        29.81S
INTRNTL FALLS  FAIR      66  64  93 SW6       29.81S
ELY            MOCLDY    64  63  94 CALM      29.83S
CLOQUET        RAIN      63  59  88 CALM      29.82R
BRAINERD       NOT AVBL
HIBBING        LGT RAIN  64  64 100 CALM      29.81S
ALEXANDRIA     CLOUDY    66  63  90 NE10      29.83R FOG
SAINT CLOUD    LGT RAIN  63  61  93 N3        29.76R
MINNEAPOLIS    CLOUDY    66  62  87 E9        29.70S
$$

  *****  WEATHER ACROSS SOUTH DAKOTA  *****

CITY           SKY/WX    TMP DP  RH WIND       PRES   REMARKS
SIOUX FALLS    FAIR      66  60  81 NW15G25   29.82R
BROOKINGS      CLOUDY    66  62  87 N16G22    29.84R
WATERTOWN      MOCLDY    62  61  96 N12       29.86R
HURON          FAIR      60  58  92 NW6       29.88R
SISSETON         N/A     63  61  93 NW9       29.85R
ABERDEEN       MOCLDY    64  60  87 NW5       29.89R
MITCHELL       FAIR      64  60  87 NW8       29.88R
PIERRE         FAIR      66  62  87 SE6       29.89R
MOBRIDGE       FAIR      66  63  90 CALM      29.87R
RAPID CITY     FAIR      68  58  70 N5        29.99R
$$

  *****  SOME WEATHER IN NEARBY STATES *****

CITY           SKY/WX    TMP DP  RH WIND       PRES   REMARKS
GLASGOW MT     FAIR      71  50  47 NE12      29.98R
GREAT FALLS MT FAIR      71  52  50 E8        29.96S
CHEYENNE WY    FAIR      69  47  45 CALM      30.20R
SCOTTSBLUFF NE FAIR      69  61  75 S5        30.05R
OMAHA NE       FAIR      74  63  68 NW8       29.83R
DES MOINES IA  FAIR      76  61  59 W18G25    29.73R
DAVENPORT IA   MOCLDY    73  65  75 SW12G20   29.71F
CHICAGO IL     LGT RAIN  78  64  61 S14G24    29.77S
EAU CLAIRE WI  LGT RAIN  66  63  90 E12       29.69F
LA CROSSE WI   LGT RAIN  69  67  93 E5        29.64F
$$

  *****  SOME NATIONAL WEATHER *****

CITY           SKY/WX    TMP DP  RH WIND       PRES   REMARKS
LA GUARDIA NY  FAIR      74  63  68 SW6       30.13R
RALEIGH NC     MOCLDY    73  60  63 SE7       30.08S
ATLANTA GA     MOCLDY    75  71  87 E7        30.01F
NEW ORLEANS LA MOCLDY    83  80  91 SW3       29.93S HX  95
OKLAHOMA CITY  MOCLDY    79  70  74 S7        29.79F
ALBUQUERQUE NM FAIR      80  49  33 SE5       30.15R
SALT LAKE CITY MOCLDY    84  40  21 SE13      30.02R
LOS ANGELES CA FAIR      69  64  84 W9        29.96R
BOISE ID       FAIR      82  36  19 CALM      29.91R
SEATTLE WA     MOCLDY    64  52  64 SW5       30.17R
$$

*** WEATHER ACROSS MANITOBA...SASKATCHEWAN AND ONTARIO ***
                ***ONTARIO***

CITY           SKY/WX    TMP DP  RH WIND       PRES   REMARKS
GERALDTON      PTCLDY    61  54  77 S7        29.85S
THUNDER BAY    MOCLDY    59  57  94 E7        29.82S
SIOUX LOOKOUT  CLOUDY    64  63  94 W5        29.79R
TORONTO        CLEAR     70  59  68 SE6       30.04S
BIG TROUT LK   MOCLDY    61  61 100 W5        29.87R
PICKLE LAKE    NOT AVBL
DRYDEN         CLOUDY    66  64  94 S6        29.78R
KENORA         CLOUDY    66  64  94 N8        29.81R FOG
$$
                *** MANITOBA***

CITY           SKY/WX    TMP DP  RH WIND       PRES   REMARKS
BRANDON        MOCLDY    64  61  88 N6        29.93R
DAUPHIN        CLEAR     57 N/A N/A W5        29.94R
ISLAND LAKE    PTCLDY    66  55  68 NE6       29.92R
PILOT MOUND      N/A     64  59  82 N8          N/A
THE PAS        PTCLDY    61  54  77 CALM      29.94S
THOMPSON       PTCLDY    63  54  72 NE8       29.98R
WINNIPEG       LGT RAIN  66  64  94 N7        29.84R
CHURCHILL      CLOUDY    46  43  87 N8        30.05R
GILLAM         CLOUDY    52  46  82 NE7       30.02R
$$
                ***SASKATCHEWAN***

CITY           SKY/WX    TMP DP  RH WIND       PRES   REMARKS
ESTEVAN        CLEAR     59  59 100 NE7       30.00R
KINDERSLEY     MOCLDY    66  59  77 SE9       29.97S THUNDER
LLOYDMINSTER   CLOUDY    66  54  63 CALM      29.96F
PRINCE ALBERT  MOCLDY    64  59  82 CALM      29.99R
REGINA         PTCLDY    66  55  68 E6        30.00S
YORKTON        CLEAR     59  57  94 W3        30.00R
N. BATTLEFORD  CLEAR     64  57  77 NE6       29.97F


USA.gov is the U.S. government's official web portal to all federal, state and local government web resources and services.